Location: Cahas Mountain Overlook
(37.0833°N, 80.1000°W)
Time: 08:06:37
(UTC-04:00)

FO-29 - Pass Details

Date: 30 April 2024
Orbit: 800 x 1320 km, 98.6° (Epoch: 22 June)

Event Time Altitude Azimuth Distance (km) Brightness Sun altitude
Rises 03:24:19 0° 10° (N) 4,287 13.8 -30.0°
Maximum altitude 03:34:51 76° 287° (WNW) 1,355 10.0 -28.7°
Enters shadow 03:36:18 61° 224° (SW) 1,464 10.0 -28.6°
